Sigfox identifier Datetime Temperature Humidity SNR
002F24B6 2019-04-23 15:02:04 16.3 33 21.7
002F24B6 2019-04-23 14:28:08 16.3 33 21.7
002F24B6 2019-04-23 13:54:11 16.2 33 21.4
002F24B6 2019-04-23 13:20:14 16 33 21.5
002F24B6 2019-04-23 12:46:16 16 33 21.5
002F24B6 2019-04-23 12:12:20 16 33 21.7
002F24B6 2019-04-23 11:38:24 15.9 33 21.7
002F24B6 2019-04-23 11:04:26 15.8 33 21.5
002F24B6 2019-04-23 10:30:29 15.8 33 21.4
002F24B6 2019-04-23 09:56:33 15.8 33 21.3
002F24B6 2019-04-23 09:22:36 15.8 33 21.2
002F24B6 2019-04-23 08:48:40 15.8 33 21.3
002F24B6 2019-04-23 08:14:44 15.8 33 21.1
002F24B6 2019-04-23 07:40:49 15.8 33 21
002F24B6 2019-04-23 07:06:53 15.8 33 21
002F24B6 2019-04-23 06:32:57 15.7 33 21.1
002F24B6 2019-04-23 05:59:01 15.7 33 21.3
002F24B6 2019-04-23 05:25:03 15.6 33 21.5
002F24B6 2019-04-23 04:51:06 15.6 33 21.7
002F24B6 2019-04-23 04:17:10 15.7 33 21.9
002F24B6 2019-04-23 03:43:09 15.6 33 21.9
002F24B6 2019-04-23 03:09:12 15.6 33 22.1
002F24B6 2019-04-23 02:35:14 15.7 33 22.3
002F24B6 2019-04-23 02:01:16 15.8 33 22.4
002F24B6 2019-04-23 01:27:20 15.8 33 22.5
002F24B6 2019-04-23 00:53:23 15.8 33 22.5
002F24B6 2019-04-23 00:19:25 15.8 33 22.6
002F24B6 2019-04-22 23:45:28 15.8 33 22.6
002F24B6 2019-04-22 23:11:31 15.8 33 22.5
002F24B6 2019-04-22 22:37:33 15.8 33 22.5
002F24B6 2019-04-22 22:03:36 15.8 33 22.5
002F24B6 2019-04-22 21:29:40 15.9 33 22.6
002F24B6 2019-04-22 20:55:43 15.9 33 22.5
002F24B6 2019-04-22 20:21:46 16 33 22.5
002F24B6 2019-04-22 19:47:49 16 33 22.4
002F24B6 2019-04-22 19:13:51 16 33 22.3
002F24B6 2019-04-22 18:39:53 16 33 22.1
002F24B6 2019-04-22 18:05:56 16 33 22.9
002F24B6 2019-04-22 17:31:59 16 33 22.8
002F24B6 2019-04-22 16:58:01 16 33 22.7
002F24B6 2019-04-22 16:24:04 16 33 22.6
002F24B6 2019-04-22 15:50:07 15.9 33 22.5
002F24B6 2019-04-22 15:16:11 15.8 33 22.3
002F24B6 2019-04-22 14:42:14 15.8 33 22.1
002F24B6 2019-04-22 14:08:17 15.8 33 21.9
002F24B6 2019-04-22 13:34:20 15.8 33 21.9
002F24B6 2019-04-22 13:00:22 15.8 33 21.8
002F24B6 2019-04-22 12:26:26 15.8 33 21.7
002F24B6 2019-04-22 11:52:29 15.8 33 21.5
002F24B6 2019-04-22 11:18:32 15.8 33 21.3
002F24B6 2019-04-22 10:44:38 15.8 33 21.4
002F24B6 2019-04-22 10:10:39 15.8 33 21.3
002F24B6 2019-04-22 09:36:43 15.8 33 21.3
002F24B6 2019-04-22 09:02:46 15.8 33 21.5
002F24B6 2019-04-22 08:28:49 15.8 32 21.5
002F24B6 2019-04-22 07:54:51 15.8 33 21.5
002F24B6 2019-04-22 07:20:53 15.8 32 21.5
002F24B6 2019-04-22 06:46:56 15.8 32 21.6
002F24B6 2019-04-22 06:12:58 15.8 32 21.6
002F24B6 2019-04-22 05:39:00 15.8 32 21.7
002F24B6 2019-04-22 05:05:01 15.7 32 21.7
002F24B6 2019-04-22 04:31:04 15.6 32 21.8
002F24B6 2019-04-22 03:57:07 15.6 32 20.6
002F24B6 2019-04-22 03:23:11 15.6 32 20.6
002F24B6 2019-04-22 02:49:15 15.6 32 20.8
002F24B6 2019-04-22 02:15:19 15.6 32 21
002F24B6 2019-04-22 01:41:22 15.6 32 21.3
002F24B6 2019-04-22 01:07:26 15.6 32 21.4
002F24B6 2019-04-22 00:33:30 15.6 32 21.5
002F24B6 2019-04-21 23:59:34 15.6 32 21.5
002F24B6 2019-04-21 23:25:38 15.6 32 21.6
002F24B6 2019-04-21 22:51:42 15.6 32 21.7
002F24B6 2019-04-21 22:17:46 15.6 32 21.8
002F24B6 2019-04-21 21:43:51 15.6 32 21.8
002F24B6 2019-04-21 21:09:55 15.6 32 21.9
002F24B6 2019-04-21 20:36:00 15.6 32 21.8
002F24B6 2019-04-21 20:02:05 15.6 32 21.8
002F24B6 2019-04-21 19:28:09 15.6 32 21.7
002F24B6 2019-04-21 18:54:13 15.6 32 21.6
002F24B6 2019-04-21 18:20:17 15.6 32 21.5
002F24B6 2019-04-21 17:46:20 15.6 32 21.4
002F24B6 2019-04-21 17:12:24 15.6 32 21.3
002F24B6 2019-04-21 16:38:29 15.6 32 21.2
002F24B6 2019-04-21 16:04:32 15.6 32 21.1
002F24B6 2019-04-21 15:30:36 15.5 32 21.1
002F24B6 2019-04-21 14:56:40 15.6 32 21
002F24B6 2019-04-21 14:22:43 15.6 32 21
002F24B6 2019-04-21 13:48:48 15.6 32 21.1
002F24B6 2019-04-21 13:14:50 15.6 32 21.1
002F24B6 2019-04-21 12:40:55 15.6 32 21.1
002F24B6 2019-04-21 12:06:58 15.6 32 21
002F24B6 2019-04-21 11:33:02 15.6 32 20.9
002F24B6 2019-04-21 10:59:05 15.6 32 21
002F24B6 2019-04-21 10:25:07 15.6 32 21
002F24B6 2019-04-21 09:51:11 15.6 32 21
002F24B6 2019-04-21 09:17:15 15.7 32 20.9
002F24B6 2019-04-21 08:43:20 15.8 32 20.9
002F24B6 2019-04-21 08:09:25 15.8 32 20.9
002F24B6 2019-04-21 07:35:29 15.8 32 20.9
002F24B6 2019-04-21 07:01:34 15.8 32 21
002F24B6 2019-04-21 06:27:38 15.8 32 21.1
002F24B6 2019-04-21 05:53:42 15.7 32 21.2
002F24B6 2019-04-21 05:19:45 15.8 32 21.4
002F24B6 2019-04-21 04:45:49 15.6 32 22.4
002F24B6 2019-04-21 04:11:52 15.6 31 22.5
002F24B6 2019-04-21 03:37:56 15.6 32 22.5
002F24B6 2019-04-21 03:04:00 15.6 31 22.5
002F24B6 2019-04-21 02:30:03 15.6 31 22.6
002F24B6 2019-04-21 01:56:07 15.6 31 22.7
002F24B6 2019-04-21 01:22:10 15.6 31 22.8
002F24B6 2019-04-21 00:48:14 15.6 31 22.8
002F24B6 2019-04-21 00:14:18 15.6 31 22.9
002F24B6 2019-04-20 23:40:22 15.6 31 22.9
002F24B6 2019-04-20 23:06:26 15.6 31 23
002F24B6 2019-04-20 22:32:29 15.6 31 23
002F24B6 2019-04-20 21:58:34 15.6 31 23.1
002F24B6 2019-04-20 21:24:39 15.6 31 23.1
002F24B6 2019-04-20 20:50:42 15.6 31 23
002F24B6 2019-04-20 20:16:47 15.6 31 23
002F24B6 2019-04-20 19:42:51 15.6 31 23
002F24B6 2019-04-20 19:08:54 15.6 31 23
002F24B6 2019-04-20 18:34:57 15.6 31 23
002F24B6 2019-04-20 18:00:59 15.6 31 22.9
002F24B6 2019-04-20 17:27:01 15.6 31 22.9
002F24B6 2019-04-20 16:53:03 15.6 31 22.9
002F24B6 2019-04-20 16:19:06 15.6 31 22.8
002F24B6 2019-04-20 15:45:10 15.6 31 22.7
002F24B6 2019-04-20 15:11:13 15.6 31 22.5
002F24B6 2019-04-20 14:37:16 15.6 31 21.6
002F24B6 2019-04-20 14:03:19 15.6 31 21.6
002F24B6 2019-04-20 13:29:22 15.6 31 21.7
002F24B6 2019-04-20 12:55:25 15.6 31 21.7
002F24B6 2019-04-20 12:21:27 15.6 31 21.7
002F24B6 2019-04-20 11:47:30 15.6 31 21.6
002F24B6 2019-04-20 11:13:32 15.7 31 21.3
002F24B6 2019-04-20 10:39:35 15.8 31 21.1
002F24B6 2019-04-20 10:05:38 15.7 31 21.1
002F24B6 2019-04-20 09:31:40 15.8 31 21
002F24B6 2019-04-20 08:57:43 15.8 31 20.9
002F24B6 2019-04-20 08:23:46 15.8 31 21
002F24B6 2019-04-20 07:49:48 15.8 31 21
002F24B6 2019-04-20 07:15:51 15.8 31 21.1
002F24B6 2019-04-20 06:41:54 15.8 31 21.2
002F24B6 2019-04-20 06:07:57 15.8 30 21.3
002F24B6 2019-04-20 05:34:00 15.8 30 21.3
002F24B6 2019-04-20 05:00:03 15.8 30 21.4
002F24B6 2019-04-20 04:26:06 15.8 30 21.6
002F24B6 2019-04-20 03:52:09 15.8 30 21.7
002F24B6 2019-04-20 03:18:13 16 30 21.8
002F24B6 2019-04-20 02:44:17 16 30 21.8
002F24B6 2019-04-20 02:10:20 16 30 21.7
002F24B6 2019-04-20 01:36:25 16 30 21.8
002F24B6 2019-04-20 01:02:25 16 30 22
002F24B6 2019-04-20 00:28:26 16 30 22
002F24B6 2019-04-19 23:54:28 16 30 22
002F24B6 2019-04-19 23:20:31 16 30 22
002F24B6 2019-04-19 22:46:36 16.1 30 22.4
002F24B6 2019-04-19 22:12:40 16.1 30 22.5
002F24B6 2019-04-19 21:38:40 16.2 30 22.6
002F24B6 2019-04-19 21:04:43 16.2 30 22.6
002F24B6 2019-04-19 20:30:45 16.3 30 22.6
002F24B6 2019-04-19 19:56:49 16.3 30 22.4
002F24B6 2019-04-19 19:22:52 16.3 30 22.3
002F24B6 2019-04-19 18:48:55 16.3 30 22.1
002F24B6 2019-04-19 18:14:59 16.3 30 22
002F24B6 2019-04-19 17:41:01 16.3 30 21.9
002F24B6 2019-04-19 17:07:03 16.3 30 21.8
002F24B6 2019-04-19 16:33:06 16.3 30 21.7
002F24B6 2019-04-19 15:59:10 16.3 30 21.6
002F24B6 2019-04-19 15:25:12 16.1 30 21.3
002F24B6 2019-04-19 14:51:15 16 30 21.3
002F24B6 2019-04-19 14:17:18 16 30 21.2
002F24B6 2019-04-19 13:43:22 16 30 21.3
002F24B6 2019-04-19 13:09:26 16 30 21.3
002F24B6 2019-04-19 12:35:29 16 30 21.4
002F24B6 2019-04-19 12:01:35 16 30 21.4
002F24B6 2019-04-19 11:27:39 16 30 21.4
002F24B6 2019-04-19 10:53:44 16 30 21.5
002F24B6 2019-04-19 10:19:49 16 29 21.5
002F24B6 2019-04-19 09:45:55 16 29 21.5
002F24B6 2019-04-19 09:12:00 16 29 21.6
002F24B6 2019-04-19 08:38:04 16 29 21.6
002F24B6 2019-04-19 08:04:07 16 29 21.6
002F24B6 2019-04-19 07:30:10 16 29 21.7
002F24B6 2019-04-19 06:56:13 16 29 21.7
002F24B6 2019-04-19 06:22:16 16 29 21.9
002F24B6 2019-04-19 05:48:20 16 29 22.1
002F24B6 2019-04-19 05:14:25 16 29 22.3
002F24B6 2019-04-19 04:40:29 16 29 22.5
002F24B6 2019-04-19 04:06:33 16.1 29 22.4
002F24B6 2019-04-19 03:32:36 16.3 29 22.5
002F24B6 2019-04-19 02:58:38 16.3 29 22.5
002F24B6 2019-04-19 02:24:41 16.3 29 22.9
002F24B6 2019-04-19 01:50:44 16.3 29 23.1
002F24B6 2019-04-19 01:16:47 16.3 29 23.3
002F24B6 2019-04-19 00:42:51 16.4 29 23.4
002F24B6 2019-04-19 00:08:55 16.5 29 23.6
002F24B6 2019-04-18 23:34:58 16.5 29 23.6
002F24B6 2019-04-18 23:01:02 16.5 29 23.6
002F24B6 2019-04-18 22:27:07 16.6 29 23.7
002F24B6 2019-04-18 21:53:13 16.7 29 23.8
002F24B6 2019-04-18 21:19:18 16.7 29 23.7
002F24B6 2019-04-18 20:45:23 16.7 29 23.5
002F24B6 2019-04-18 20:11:29 16.7 29 23.4
002F24B6 2019-04-18 19:37:35 16.7 29 23.3
002F24B6 2019-04-18 19:03:39 16.7 29 23
002F24B6 2019-04-18 18:29:45 16.7 29 22.9
002F24B6 2019-04-18 17:55:50 16.7 29 22.7
002F24B6 2019-04-18 17:21:55 16.7 29 22.4
002F24B6 2019-04-18 16:47:58 16.5 28 22.3
002F24B6 2019-04-18 16:14:02 16.5 28 22
002F24B6 2019-04-18 15:40:05 16.5 28 22.7
002F24B6 2019-04-18 15:06:09 16.5 28 22.5
002F24B6 2019-04-18 14:32:14 16.4 28 22.2
002F24B6 2019-04-18 13:58:18 16.3 28 22.2
002F24B6 2019-04-18 13:24:24 16.3 28 22.3
002F24B6 2019-04-18 12:50:29 16.3 28 22.4
002F24B6 2019-04-18 12:16:33 16.3 28 22.2
002F24B6 2019-04-18 11:42:37 16.3 28 22.2
002F24B6 2019-04-18 11:08:41 16.3 28 21.8
002F24B6 2019-04-18 10:34:44 16.3 28 21.6
002F24B6 2019-04-18 10:00:49 16.3 28 21.4
002F24B6 2019-04-18 09:26:54 16.3 28 21.6
002F24B6 2019-04-18 08:52:57 16.3 28 21.6
002F24B6 2019-04-18 08:19:02 16.3 28 21.5
002F24B6 2019-04-18 07:45:07 16.3 28 21.4
002F24B6 2019-04-18 07:11:13 16.3 28 21.4
002F24B6 2019-04-18 06:37:17 16.3 28 21.6
002F24B6 2019-04-18 06:03:22 16.3 28 21.8
002F24B6 2019-04-18 05:29:28 16.3 28 22
002F24B6 2019-04-18 04:55:32 16.3 28 22.3
002F24B6 2019-04-18 04:21:37 16.3 28 22.3
002F24B6 2019-04-18 03:47:41 16.3 28 22.6
002F24B6 2019-04-18 03:13:48 16.3 27 23
002F24B6 2019-04-18 02:39:51 16.5 27 23.1
002F24B6 2019-04-18 02:05:56 16.5 27 23.1
002F24B6 2019-04-18 01:32:02 16.5 27 23.1
002F24B6 2019-04-18 00:58:06 16.7 27 23.2
002F24B6 2019-04-18 00:24:11 16.7 27 23.3
002F24B6 2019-04-17 23:50:15 16.7 27 23.4
002F24B6 2019-04-17 23:16:19 16.8 27 23.4
002F24B6 2019-04-17 22:42:24 16.9 27 23.2
002F24B6 2019-04-17 22:08:30 16.9 27 23
002F24B6 2019-04-17 21:34:35 16.8 27 22.8
002F24B6 2019-04-17 21:00:42 16.7 27 22.9
002F24B6 2019-04-17 20:26:46 16.8 27 22.8
002F24B6 2019-04-17 19:52:51 16.7 27 22.7
002F24B6 2019-04-17 19:18:56 16.7 27 22.6
002F24B6 2019-04-17 18:45:00 16.8 27 22.5
002F24B6 2019-04-17 18:11:05 16.8 27 22.4
002F24B6 2019-04-17 17:37:09 16.7 27 22.6
002F24B6 2019-04-17 17:03:14 16.8 26 22.7
002F24B6 2019-04-17 16:29:18 16.7 26 22.7
002F24B6 2019-04-17 15:55:23 16.9 26 23.4
002F24B6 2019-04-17 15:21:25 16.9 26 23.2
002F24B6 2019-04-17 14:47:28 16.9 26 23.4
002F24B6 2019-04-17 14:13:31 16.9 26 23.2
002F24B6 2019-04-17 13:39:33 17.1 26 22.9
002F24B6 2019-04-17 13:05:37 17.1 26 22.9
002F24B6 2019-04-17 12:31:40 17.1 26 22.9
002F24B6 2019-04-17 11:57:43 17.1 26 22
002F24B6 2019-04-17 11:23:46 17.1 26 21.9
002F24B6 2019-04-17 10:49:48 17.1 26 21.8
002F24B6 2019-04-17 10:15:52 17.1 26 21.6
002F24B6 2019-04-17 09:41:57 17.1 26 21.5
002F24B6 2019-04-17 09:08:01 17.1 25 21.4
002F24B6 2019-04-17 08:34:06 17.3 25 21.4
002F24B6 2019-04-17 08:00:10 17.3 25 21.4
002F24B6 2019-04-17 07:26:13 17.5 25 21.2
002F24B6 2019-04-17 06:52:15 17.7 25 21.1
002F24B6 2019-04-17 06:18:20 17.8 25 21.1
002F24B6 2019-04-17 05:44:25 17.8 25 21.3
002F24B6 2019-04-17 05:10:30 17.8 25 21.3
002F24B6 2019-04-17 04:36:34 17.9 25 21.3
002F24B6 2019-04-17 04:02:38 18 25 21.1
002F24B6 2019-04-17 03:28:42 18 24 20.9
002F24B6 2019-04-17 02:54:46 18.1 24 20.4
002F24B6 2019-04-17 02:20:49 18.2 24 20.2
002F24B6 2019-04-17 01:46:53 18.2 24 18.6
002F24B6 2019-04-17 01:12:56 18.2 24 18.5
002F24B6 2019-04-17 00:38:59 18.2 24 18
002F24B6 2019-04-17 00:05:02 18.2 24 17.8
002F24B6 2019-04-16 23:31:06 18.2 24 18.1
002F24B6 2019-04-16 22:57:10 18.4 23 18.1
002F24B6 2019-04-16 22:23:13 18.6 23 18.6
002F24B6 2019-04-16 21:49:18 18.8 23 18.8
002F24B6 2019-04-16 21:15:22 19 23 19.3
002F24B6 2019-04-16 20:41:25 19 23 19.3
002F24B6 2019-04-16 20:07:29 19.2 23 19.9
002F24B6 2019-04-16 19:33:31 19.2 23 20
002F24B6 2019-04-16 18:59:36 19.2 23 20
002F24B6 2019-04-16 18:25:36 19.5 23 19.9
002F24B6 2019-04-16 17:51:39 19.5 22 19.9
002F24B6 2019-04-16 17:17:42 19.7 22 19.9
002F24B6 2019-04-16 16:43:48 19.9 22 20
002F24B6 2019-04-16 16:09:49 20 22 21.4
002F24B6 2019-04-16 15:35:54 20.2 22 21.2
002F24B6 2019-04-16 15:01:57 20.5 22 21.2
002F24B6 2019-04-16 13:54:09 21.1 22 21.1
002F24B6 2019-04-16 13:20:09 21 22 21.2
002F24B6 2019-04-16 12:46:13 21 22 21.3
002F24B6 2019-04-16 12:12:19 21 22 21.3
002F24B6 2019-04-16 11:38:22 21 22 21.4
002F24B6 2019-04-16 11:04:28 21 22 21.5
002F24B6 2019-04-16 10:30:27 21 22 21.3
002F24B6 2019-04-16 09:56:33 21 22 21.3
002F24B6 2019-04-16 09:22:37 21 22 21.3
002F24B6 2019-04-16 08:48:39 21 22 21.2
002F24B6 2019-04-16 08:14:43 21 22 21.2
002F24B6 2019-04-16 07:40:47 21 22 20.9
002F24B6 2019-04-16 07:06:50 21 22 20.9
002F24B6 2019-04-16 06:32:54 21 22 20.6
002F24B6 2019-04-16 05:58:57 21 22 20.6
002F24B6 2019-04-16 05:25:01 21 22 20.1
002F24B6 2019-04-16 04:51:04 21 22 20.2
002F24B6 2019-04-16 04:17:07 21 22 20.3
002F24B6 2019-04-16 03:43:09 21 22 20.4
002F24B6 2019-04-16 03:09:13 21 22 20.3
002F24B6 2019-04-16 02:35:17 21 22 20.3
002F24B6 2019-04-16 02:01:22 21 22 20.3
002F24B6 2019-04-16 01:27:25 21 21 18.8
002F24B6 2019-04-16 00:53:32 21.1 21 18.9
002F24B6 2019-04-16 00:19:33 21.1 21 19.6
002F24B6 2019-04-15 23:45:36 21.1 21 20.1
002F24B6 2019-04-15 23:11:39 21.2 21 20.9
002F24B6 2019-04-15 22:37:43 21.2 21 21.3
002F24B6 2019-04-15 22:03:49 21.2 21 21.7
002F24B6 2019-04-15 21:29:50 21.2 21 22.1
002F24B6 2019-04-15 20:55:56 21.2 21 22.5
002F24B6 2019-04-15 20:21:57 21.2 21 22.6
002F24B6 2019-04-15 19:48:00 21.2 21 22.9
002F24B6 2019-04-15 19:14:03 21.2 20 23.2
002F24B6 2019-04-15 18:40:06 21.3 20 23.4
002F24B6 2019-04-15 18:06:08 21.4 20 23.4
002F24B6 2019-04-15 17:32:11 21.4 20 23.5
002F24B6 2019-04-15 16:58:16 21.5 20 23.8
002F24B6 2019-04-15 16:24:17 21.6 20 24.1
002F24B6 2019-04-15 15:50:20 21.6 20 24.2
002F24B6 2019-04-15 15:16:24 21.7 19 24.2
002F24B6 2019-04-15 14:42:29 21.8 19 24.6
002F24B6 2019-04-15 14:08:30 21.8 19 24.7
002F24B6 2019-04-15 13:34:32 22 18 24.8
002F24B6 2019-04-15 13:00:36 22.2 18 25
002F24B6 2019-04-15 12:26:40 22.2 17 25.1
002F24B6 2019-04-15 11:52:42 22.5 17 25.2
002F24B6 2019-04-15 11:18:46 22.5 16 25.4
002F24B6 2019-04-15 10:44:51 22.3 16 25.4
002F24B6 2019-04-15 10:10:56 22.2 16 25.4
002F24B6 2019-04-15 09:36:59 22.2 16 25.3
002F24B6 2019-04-15 09:03:04 22.1 16 25.3
002F24B6 2019-04-15 08:29:08 22 16 25.3
002F24B6 2019-04-15 07:55:13 22 16 25.2
002F24B6 2019-04-15 07:21:18 21.8 16 25.2
002F24B6 2019-04-15 06:47:20 21.8 16 25.3
002F24B6 2019-04-15 06:13:23 21.8 16 25.4
002F24B6 2019-04-15 05:39:25 21.8 17 25.5
002F24B6 2019-04-15 05:05:28 21.8 17 25.3
002F24B6 2019-04-15 04:31:32 21.8 17 25.4
002F24B6 2019-04-15 03:57:34 21.8 17 25.5
002F24B6 2019-04-15 03:23:38 21.8 17 25.8
002F24B6 2019-04-15 02:49:41 21.8 17 25.9
002F24B6 2019-04-15 02:15:46 21.8 17 25.9
002F24B6 2019-04-15 01:41:49 21.8 17 26.1
002F24B6 2019-04-15 01:07:53 21.8 17 26.1
002F24B6 2019-04-15 00:33:56 21.8 17 26
002F24B6 2019-04-15 00:00:00 21.8 17 26
002F24B6 2019-04-14 23:26:03 21.8 17 26.1
002F24B6 2019-04-14 22:52:06 21.8 17 26.2
002F24B6 2019-04-14 22:18:09 21.8 17 26.3
002F24B6 2019-04-14 21:44:12 21.9 18 26.3
002F24B6 2019-04-14 21:10:16 22 18 26.2
002F24B6 2019-04-14 20:36:18 22 18 26.2
002F24B6 2019-04-14 20:02:22 22 18 26.2
002F24B6 2019-04-14 19:28:24 22 18 26.1
002F24B6 2019-04-14 18:54:28 22 17 26.2
002F24B6 2019-04-14 18:20:31 22 17 26.3
002F24B6 2019-04-14 17:46:36 22 17 26.3
002F24B6 2019-04-14 17:12:39 22 17 26.2
002F24B6 2019-04-14 16:38:43 22 17 26.4
002F24B6 2019-04-14 16:04:47 22 17 26.6
002F24B6 2019-04-14 15:30:50 22 17 26.6
002F24B6 2019-04-14 14:56:53 22 17 26.6
002F24B6 2019-04-14 14:22:56 22 17 26.7
002F24B6 2019-04-14 13:49:00 22 18 26.7
002F24B6 2019-04-14 13:15:05 22 18 26.5
002F24B6 2019-04-14 12:41:08 22 18 26.4
002F24B6 2019-04-14 12:07:12 22 18 26.4
002F24B6 2019-04-14 11:33:16 22 18 26.2
002F24B6 2019-04-14 10:59:19 22 18 26.3
002F24B6 2019-04-14 10:25:23 22 18 26.2
002F24B6 2019-04-14 09:51:27 22 18 26.2
002F24B6 2019-04-14 09:17:31 21.9 18 26.3
002F24B6 2019-04-14 08:43:35 21.8 18 26.1
002F24B6 2019-04-14 08:09:38 21.8 17 26
002F24B6 2019-04-14 07:35:41 21.8 17 26.1
002F24B6 2019-04-14 07:01:45 21.8 17 26
002F24B6 2019-04-14 06:27:50 21.8 17 25.9
002F24B6 2019-04-14 05:53:54 21.8 17 26
002F24B6 2019-04-14 05:19:58 21.8 17 26
002F24B6 2019-04-14 04:46:01 21.8 17 25.9
002F24B6 2019-04-14 04:12:03 21.8 17 25.8
002F24B6 2019-04-14 03:38:07 21.9 17 25.8
002F24B6 2019-04-14 03:04:10 22 17 25.8
002F24B6 2019-04-14 02:30:13 22 17 25.6
002F24B6 2019-04-14 01:56:16 22 17 25.2
002F24B6 2019-04-14 01:22:20 22 17 25.2
002F24B6 2019-04-14 00:48:23 22 17 25.1
002F24B6 2019-04-14 00:14:27 22 17 25
002F24B6 2019-04-13 23:40:30 22 17 25
002F24B6 2019-04-13 23:06:33 22 17 25
002F24B6 2019-04-13 22:32:38 22 17 25.1
002F24B6 2019-04-13 21:58:42 22 17 25.1
002F24B6 2019-04-13 21:24:45 22 17 25.2
002F24B6 2019-04-13 20:50:49 22 17 25.2
002F24B6 2019-04-13 20:16:54 22 17 25.2
002F24B6 2019-04-13 19:42:57 22.2 17 25.2
002F24B6 2019-04-13 19:09:01 22.2 17 25.3
002F24B6 2019-04-13 18:35:05 22.2 17 25.4
002F24B6 2019-04-13 18:01:09 22.2 17 25.4
002F24B6 2019-04-13 17:27:12 22.2 17 25.3
002F24B6 2019-04-13 16:53:16 22.2 17 25.3
002F24B6 2019-04-13 16:19:19 22.2 17 25.5
002F24B6 2019-04-13 15:45:21 22.2 17 25.5
002F24B6 2019-04-13 15:11:24 22.2 17 25.5
002F24B6 2019-04-13 14:37:28 22.2 17 25.4
002F24B6 2019-04-13 14:03:30 22.4 17 25.5
002F24B6 2019-04-13 13:29:34 22.5 17 25.5
002F24B6 2019-04-13 12:55:37 22.5 17 25.4
002F24B6 2019-04-13 12:21:41 22.5 17 25.4
002F24B6 2019-04-13 11:47:43 22.5 17 25.4
002F24B6 2019-04-13 11:13:47 22.5 17 25.3
002F24B6 2019-04-13 10:39:50 22.4 17 25.3
002F24B6 2019-04-13 10:05:54 22.4 17 25.4
002F24B6 2019-04-13 09:31:57 22.3 17 25.3
002F24B6 2019-04-13 08:58:00 22.3 17 25.3
002F24B6 2019-04-13 08:24:04 22.2 17 25.3
002F24B6 2019-04-13 07:50:07 22.2 16 25.2
002F24B6 2019-04-13 07:16:10 22.3 16 25.1
002F24B6 2019-04-13 06:42:14 22.2 16 25.3
002F24B6 2019-04-13 06:08:17 22.2 16 25.3
002F24B6 2019-04-13 05:34:19 22.3 16 25.2
002F24B6 2019-04-13 05:00:21 22.3 16 25
002F24B6 2019-04-13 04:26:24 22.2 16 25.4
002F24B6 2019-04-13 03:52:26 22.4 16 25.7
002F24B6 2019-04-13 03:18:29 22.5 16 25.6
002F24B6 2019-04-13 02:44:31 22.5 16 25.5
002F24B6 2019-04-13 02:10:33 22.5 17 25.5
002F24B6 2019-04-13 01:36:34 22.5 17 25.5
002F24B6 2019-04-13 01:02:37 22.5 17 25.5
002F24B6 2019-04-13 00:28:39 22.5 17 25.6
002F24B6 2019-04-12 23:54:42 22.6 17 25.6
002F24B6 2019-04-12 23:20:43 22.7 17 25.6
002F24B6 2019-04-12 22:46:45 22.7 17 25.7
002F24B6 2019-04-12 22:12:48 22.7 17 25.8
002F24B6 2019-04-12 21:38:49 22.7 17 25.9
002F24B6 2019-04-12 21:04:51 22.9 17 26
002F24B6 2019-04-12 20:30:54 22.9 17 26.2
002F24B6 2019-04-12 19:56:57 22.9 16 26.1
002F24B6 2019-04-12 19:22:59 22.9 16 26.2
002F24B6 2019-04-12 18:49:00 23 16 26.3
002F24B6 2019-04-12 18:15:02 23.1 16 26.3
002F24B6 2019-04-12 17:41:05 23.2 16 26.4
002F24B6 2019-04-12 17:07:08 23.3 17 26.6
002F24B6 2019-04-12 16:33:10 23.3 17 26.4
002F24B6 2019-04-12 15:59:12 23.3 17 26.5
002F24B6 2019-04-12 15:25:13 23.1 17 27
002F24B6 2019-04-12 14:51:14 22.9 18 27.6
002F24B6 2019-04-12 14:17:16 22.7 18 26.3
002F24B6 2019-04-12 13:43:17 22.2 18 21.6
002F24B6 2019-04-12 13:09:19 21.4 20 11.2